Edenton, NC

8:00 AM EST on February 24, 2018 (GMT -0500)
Northeastern Regional

Weather History for KEDE - March, 2013

Change the Weather History Date:

Thursday, March 7, 2013

  Actual Average Record
Temperature  
Mean Temperature 45 °F -  
Max Temperature 53 °F 61 °F 84 °F (1974)
Min Temperature 37 °F 38 °F 19 °F (2015)
Degree Days  
Heating Degree Days 20    
Moisture  
Dew Point 31 °F    
Average Humidity 60    
Maximum Humidity 81    
Minimum Humidity 41    
Precipitation  
Precipitation 0.00 in - - ()
Sea Level Pressure  
Sea Level Pressure 30.04 in    
Wind  
Wind Speed 15 mph (NNW)    
Max Wind Speed 24 mph    
Max Gust Speed 31 mph    
Visibility 10 miles    
Events      
Averages and records for this station are not official NWS values.
T = Trace of Precipitation, MM = Missing Value Source: NWS Daily Summary

Daily Weather History Graph

Daily Weather History Graph

Search for Another Location

Airport or City:

Trip Planner

Search our weather history database for the weather conditions in past years. The results will help you decide how hot, cold, wet, or windy it might be!

Date:

Astronomy

Mar. 07, 2013 Rise Set
Actual Time 6:28 AM EST 6:06 PM EST
Civil Twilight 6:02 AM EST 6:32 PM EST
Nautical Twilight 5:32 AM EST 7:02 PM EST
Astronomical Twilight 5:03 AM EST 7:32 PM EST
Moon 3:19 AM EST (3/7) 1:58 PM EST (3/7)
Length of Visible Light 12h 30m
Length of Day
11h 38m
Waning Crescent, 20% of the Moon is Illuminated
Mar 7
Waning Crescent
Mar 11
New
Mar 19
First Quarter
Mar 27
Full
Apr 3
Last Quarter

Hourly Weather History & Observations

Time (EST) Temp. Windchill Dew Point Humidity Pressure Visibility Wind Dir Wind Speed Gust Speed Precip Events Conditions
12:15 AM 41.2 °F 32.1 °F 35.6 °F 81% 29.87 in 10.0 mi NNW 19.6 mph 26.5 mph N/A   Overcast
12:35 AM 41.0 °F 32.5 °F 34.9 °F 79% 29.88 in 10.0 mi NNW 17.3 mph 27.6 mph N/A   Overcast
12:55 AM 40.6 °F 31.7 °F 34.7 °F 79% 29.89 in 10.0 mi North 18.4 mph 27.6 mph N/A   Overcast
1:15 AM 40.5 °F 30.7 °F 34.2 °F 78% 29.90 in 10.0 mi North 21.9 mph 28.8 mph N/A   Mostly Cloudy
1:35 AM 40.8 °F 32.0 °F 33.8 °F 76% 29.91 in 10.0 mi NNW 18.4 mph 27.6 mph N/A   Mostly Cloudy
1:55 AM 41.0 °F 33.1 °F 33.4 °F 74% 29.91 in 10.0 mi NNW 15.0 mph 25.3 mph N/A   Overcast
2:15 AM 41.0 °F 32.8 °F 33.1 °F 73% 29.91 in 10.0 mi NNW 16.1 mph 23.0 mph N/A   Overcast
2:35 AM 41.0 °F 32.8 °F 32.7 °F 72% 29.91 in 10.0 mi NNW 16.1 mph 24.2 mph N/A   Overcast
2:55 AM 40.5 °F 31.5 °F 32.2 °F 72% 29.91 in 10.0 mi North 18.4 mph 26.5 mph N/A   Scattered Clouds
3:15 AM 40.6 °F 33.4 °F 32.0 °F 71% 29.92 in 10.0 mi NNW 12.7 mph 24.2 mph N/A   Scattered Clouds
3:35 AM 40.8 °F 33.3 °F 32.0 °F 71% 29.94 in 10.0 mi NNW 13.8 mph 23.0 mph N/A   Mostly Cloudy
3:55 AM 41.0 °F 33.5 °F 32.0 °F 70% 29.96 in 10.0 mi NNW 13.8 mph - N/A   Mostly Cloudy
4:15 AM 41.0 °F 33.5 °F 31.8 °F 70% 29.97 in 10.0 mi NNW 13.8 mph 19.6 mph N/A   Overcast
4:35 AM 40.3 °F 34.4 °F 32.4 °F 73% 29.98 in 10.0 mi NW 9.2 mph - N/A   Overcast
4:55 AM 39.4 °F 32.7 °F 32.0 °F 75% 29.98 in 10.0 mi NNW 10.4 mph - N/A   Scattered Clouds
5:15 AM 39.2 °F 33.0 °F 32.0 °F 75% 29.98 in 10.0 mi NNW 9.2 mph 19.6 mph N/A   Mostly Cloudy
5:35 AM 38.8 °F 33.2 °F 32.0 °F 76% 29.99 in 10.0 mi NNW 8.1 mph - N/A   Overcast
5:55 AM 38.3 °F 30.9 °F 32.0 °F 78% 29.99 in 10.0 mi NNW 11.5 mph 17.3 mph N/A   Mostly Cloudy
6:15 AM 37.8 °F 31.3 °F 31.8 °F 79% 30.00 in 10.0 mi NNW 9.2 mph - N/A   Scattered Clouds
6:35 AM 37.8 °F 30.7 °F 31.8 °F 79% 30.02 in 10.0 mi NNW 10.4 mph 16.1 mph N/A   Clear
6:55 AM 38.1 °F 31.2 °F 32.0 °F 79% 30.02 in 10.0 mi NNW 10.4 mph - N/A   Scattered Clouds
7:15 AM 39.2 °F 32.0 °F 32.0 °F 75% 30.03 in 10.0 mi NNW 11.5 mph 16.1 mph N/A   Mostly Cloudy
7:35 AM 39.2 °F 33.0 °F 32.0 °F 75% 30.04 in 10.0 mi NNW 9.2 mph 16.1 mph N/A   Mostly Cloudy
7:55 AM 40.3 °F 33.4 °F 32.0 °F 72% 30.05 in 10.0 mi NNW 11.5 mph - N/A   Clear
8:15 AM 41.9 °F 34.6 °F 32.2 °F 68% 30.05 in 10.0 mi North 13.8 mph 17.3 mph N/A   Clear
8:35 AM 43.0 °F 36.0 °F 32.2 °F 66% 30.06 in 10.0 mi North 13.8 mph 19.6 mph N/A   Clear
8:55 AM 44.2 °F 37.0 °F 32.2 °F 63% 30.06 in 10.0 mi North 16.1 mph 25.3 mph N/A   Clear
9:15 AM 45.0 °F 36.6 °F 31.6 °F 60% 30.07 in 10.0 mi NNW 21.9 mph 25.3 mph N/A   Clear
9:35 AM 45.7 °F 37.1 °F 31.5 °F 58% 30.07 in 10.0 mi NNW 24.2 mph 29.9 mph N/A   Clear
9:55 AM 46.2 °F 38.3 °F 31.3 °F 56% 30.08 in 10.0 mi North 21.9 mph 31.1 mph N/A   Clear
10:15 AM 46.9 °F - 31.5 °F 55% 30.08 in 10.0 mi North 19.6 mph 28.8 mph N/A   Clear
10:35 AM 47.5 °F - 31.3 °F 53% 30.08 in 10.0 mi North 16.1 mph 27.6 mph N/A   Clear
10:55 AM 48.6 °F - 31.8 °F 52% 30.08 in 10.0 mi NNW 18.4 mph 27.6 mph N/A   Clear
11:15 AM 49.3 °F - 31.6 °F 51% 30.07 in 10.0 mi North 21.9 mph 28.8 mph N/A   Clear
11:35 AM 49.3 °F - 30.4 °F 48% 30.08 in 10.0 mi NNW 15.0 mph 31.1 mph N/A   Clear
11:55 AM 50.2 °F - 30.7 °F 47% 30.07 in 10.0 mi NNW 17.3 mph 25.3 mph N/A   Clear
12:15 PM 51.3 °F - 31.3 °F 46% 30.07 in 10.0 mi North 23.0 mph 26.5 mph N/A   Clear
12:35 PM 51.1 °F - 30.9 °F 46% 30.05 in 10.0 mi North 18.4 mph 27.6 mph N/A   Clear
12:55 PM 51.8 °F - 30.9 °F 45% 30.05 in 10.0 mi NNW 13.8 mph 26.5 mph N/A   Clear
1:15 PM 52.5 °F - 32.0 °F 46% 30.04 in 10.0 mi NNW 15.0 mph 25.3 mph N/A   Scattered Clouds
1:35 PM 52.2 °F - 30.6 °F 44% 30.03 in 10.0 mi North 23.0 mph 28.8 mph N/A   Scattered Clouds
1:55 PM 53.2 °F - 30.9 °F 43% 30.03 in 10.0 mi NNW 18.4 mph 23.0 mph N/A   Scattered Clouds
2:15 PM 52.7 °F - 31.5 °F 44% 30.04 in 10.0 mi North 18.4 mph 21.9 mph N/A   Scattered Clouds
2:35 PM 52.9 °F - 29.8 °F 41% 30.04 in 10.0 mi NNW 12.7 mph 28.8 mph N/A   Scattered Clouds
2:55 PM 51.8 °F - 30.0 °F 43% 30.04 in 10.0 mi North 19.6 mph 25.3 mph N/A   Scattered Clouds
3:15 PM 52.2 °F - 30.2 °F 43% 30.04 in 10.0 mi NW 15.0 mph 23.0 mph N/A   Mostly Cloudy
3:35 PM 51.6 °F - 30.2 °F 44% 30.05 in 10.0 mi NW 13.8 mph 23.0 mph N/A   Scattered Clouds
3:55 PM 52.0 °F - 30.6 °F 44% 30.05 in 10.0 mi NW 9.2 mph 21.9 mph N/A   Scattered Clouds
4:15 PM 51.8 °F - 31.6 °F 46% 30.05 in 10.0 mi NW 16.1 mph 21.9 mph N/A   Mostly Cloudy
4:35 PM 51.4 °F - 31.3 °F 46% 30.06 in 10.0 mi NW 16.1 mph 26.5 mph N/A   Mostly Cloudy
4:55 PM 50.5 °F - 31.1 °F 47% 30.07 in 10.0 mi NW 13.8 mph 24.2 mph N/A   Scattered Clouds
5:15 PM 49.5 °F - 30.7 °F 49% 30.07 in 10.0 mi NW 12.7 mph 19.6 mph N/A   Mostly Cloudy
5:35 PM 48.7 °F - 30.9 °F 50% 30.08 in 10.0 mi NW 12.7 mph 23.0 mph N/A   Mostly Cloudy
5:55 PM 48.4 °F - 31.1 °F 51% 30.10 in 10.0 mi NW 9.2 mph 17.3 mph N/A   Overcast
6:15 PM 47.8 °F - 30.4 °F 51% 30.10 in 10.0 mi NW 11.5 mph 18.4 mph N/A   Overcast
6:35 PM 46.6 °F - 30.6 °F 54% 30.11 in 10.0 mi NW 11.5 mph 19.6 mph N/A   Scattered Clouds
6:55 PM 46.4 °F 41.9 °F 30.2 °F 53% 30.12 in 10.0 mi NW 9.2 mph - N/A   Mostly Cloudy
8:35 PM 43.9 °F 38.8 °F 29.8 °F 58% 30.15 in 10.0 mi NNW 9.2 mph - N/A   Clear
8:55 PM 43.2 °F 38.4 °F 29.3 °F 58% 30.15 in 10.0 mi NNW 8.1 mph - N/A   Clear
9:15 PM 43.0 °F 38.2 °F 28.4 °F 56% 30.15 in 10.0 mi NNW 8.1 mph - N/A   Clear
9:35 PM 42.6 °F 37.2 °F 28.0 °F 56% 30.15 in 10.0 mi NNW 9.2 mph - N/A   Clear
9:55 PM 42.3 °F 37.3 °F 27.7 °F 56% 30.15 in 10.0 mi NW 8.1 mph - N/A   Clear
10:15 PM 42.1 °F 37.1 °F 27.5 °F 56% 30.15 in 10.0 mi NW 8.1 mph - N/A   Clear
10:35 PM 41.5 °F 35.9 °F 28.4 °F 60% 30.15 in 10.0 mi NW 9.2 mph - N/A   Clear
10:55 PM 41.5 °F 35.4 °F 28.9 °F 61% 30.15 in 10.0 mi NW 10.4 mph - N/A   Clear
11:15 PM 40.8 °F 34.5 °F 28.4 °F 61% 30.15 in 10.0 mi NNW 10.4 mph - N/A   Clear
11:35 PM 40.6 °F 36.0 °F 28.2 °F 61% 30.15 in 10.0 mi NW 6.9 mph - N/A   Clear
11:55 PM 40.5 °F 35.1 °F 28.0 °F 61% 30.15 in 10.0 mi NW 8.1 mph - N/A   Scattered Clouds